Location: Burbank
(38.7788°N, 114.0429°W)
Time: 01:01:42
(UTC+00:00)

Explorer 7 - All Passes

Search period start: 12 May 2026 00:00
Search period end: 22 May 2026 00:00
Orbit: 427 x 536 km, 50.2° (Epoch: 11 May)

Date Brightness Start Highest point End Pass type
(mag) Time Alt. Az. Time Alt. Az. Time Alt. Az.
12 May - 12:24:57 10° S 12:27:55 25° SE 12:30:58 10° ENE daylight
12 May - 14:02:34 10° WSW 14:06:02 43° NNW 14:09:39 10° NE daylight
12 May - 15:42:39 10° NW 15:45:07 16° N 15:47:38 10° NNE daylight
12 May - 17:22:00 10° NNW 17:24:35 17° N 17:27:13 10° NE daylight
12 May - 18:59:52 10° NW 19:03:39 43° NNE 19:07:32 10° ESE daylight
12 May - 20:38:22 10° WNW 20:41:54 30° SW 20:45:28 10° SSE daylight
13 May - 11:57:26 10° S 12:00:15 22° SE 12:03:09 10° E visible
13 May - 13:34:51 10° WSW 13:38:19 46° NNW 13:41:56 10° NE daylight
13 May - 15:14:53 10° NW 15:17:21 17° N 15:19:53 10° NNE daylight
13 May - 16:54:19 10° NNW 16:56:49 16° N 16:59:22 10° NE daylight
13 May - 18:32:11 10° NW 18:35:55 40° NNE 18:39:44 10° E daylight
13 May - 20:10:36 10° WNW 20:14:12 33° SW 20:17:50 10° SSE daylight
14 May - 11:29:55 10° S 11:32:34 20° SE 11:35:18 10° E visible
14 May - 13:07:08 10° WSW 13:10:36 49° NNW 13:14:13 10° NE daylight
14 May - 14:47:07 10° NW 14:49:35 17° NNW 14:52:08 10° NNE daylight
14 May - 16:26:38 10° NNW 16:29:03 16° N 16:31:31 10° NE daylight
14 May - 18:04:30 10° NW 18:08:10 38° NNE 18:11:55 10° E daylight
14 May - 19:42:50 10° WNW 19:46:29 35° SW 19:50:12 10° SSE daylight
15 May - 11:02:24 10° S 11:04:53 18° SE 11:07:26 10° E visible
15 May - 12:39:23 10° WSW 12:42:52 53° NNW 12:46:29 10° NE daylight
15 May - 14:19:19 10° NW 14:21:49 17° NNW 14:24:23 10° NNE daylight
15 May - 15:58:55 10° NNW 16:01:16 15° N 16:03:39 10° NE daylight
15 May - 17:36:49 10° NW 17:40:25 35° NNE 17:44:06 10° E daylight
15 May - 19:15:04 10° WNW 19:18:46 39° SW 19:22:31 10° SSE daylight
16 May - 10:34:55 10° S 10:37:12 17° SE 10:39:32 10° E visible
16 May - 12:11:39 10° WSW 12:15:08 57° NNW 12:18:45 10° NE daylight
16 May - 13:51:31 10° WNW 13:54:02 17° NNW 13:56:37 10° NNE daylight
16 May - 15:31:12 10° NNW 15:33:29 15° N 15:35:46 10° NE daylight
16 May - 17:09:07 10° NW 17:12:39 33° NNE 17:16:16 10° E daylight
16 May - 18:47:18 10° WNW 18:51:02 42° SW 18:54:50 10° SSE daylight
17 May - 10:07:27 10° SSE 10:09:30 15° SE 10:11:36 10° E visible
17 May - 11:43:55 10° WSW 11:47:23 63° NNW 11:51:00 10° NE visible
17 May - 13:23:42 10° WNW 13:26:15 18° NNW 13:28:52 10° NNE daylight
17 May - 15:03:29 10° NNW 15:05:40 15° N 15:07:54 10° NE daylight
17 May - 16:41:25 10° NW 16:44:51 31° NNE 16:48:25 10° E daylight
17 May - 18:19:32 10° WNW 18:23:17 46° SW 18:27:08 10° SSE daylight
18 May - 09:40:02 10° SSE 09:41:48 13° SE 09:43:36 10° E visible
18 May - 11:16:10 10° WSW 11:19:38 68° NW 11:23:14 10° NE visible
18 May - 12:55:53 10° WNW 12:58:27 18° NNW 13:01:06 10° NNE daylight
18 May - 14:35:45 10° NNW 14:37:52 14° N 14:40:01 10° NE daylight
18 May - 16:13:42 10° NW 16:17:04 29° NNE 16:20:33 10° E daylight
18 May - 17:51:46 10° WNW 17:55:32 50° SW 17:59:24 10° SE daylight
19 May - 09:12:41 10° SSE 09:14:05 12° SE 09:15:31 10° ESE visible
19 May - 10:48:25 10° WSW 10:51:52 75° NW 10:55:27 10° NE visible
19 May - 12:28:03 10° WNW 12:30:39 19° NNW 12:33:19 10° NNE daylight
19 May - 14:08:00 10° NNW 14:10:02 14° N 14:12:08 10° NE daylight
19 May - 15:45:59 10° NW 15:49:16 28° NNE 15:52:39 10° E daylight
19 May - 17:23:59 10° WNW 17:27:45 55° SW 17:31:38 10° SE daylight
20 May - 08:45:29 10° SE 08:46:22 11° SE 08:47:16 10° ESE visible
20 May - 10:20:40 10° SW 10:24:07 82° NW 10:27:41 10° NE visible
20 May - 12:00:13 10° WNW 12:02:51 19° NNW 12:05:32 10° NNE daylight
20 May - 13:40:14 10° NNW 13:42:13 14° N 13:44:13 10° NE daylight
20 May - 15:18:15 10° NW 15:21:28 26° NNE 15:24:46 10° E daylight
20 May - 16:56:13 10° WNW 16:59:59 61° SW 17:03:52 10° SE daylight
21 May - 09:52:55 10° SW 09:56:20 90° NNE 09:59:53 10° NE visible
21 May - 11:32:21 10° WNW 11:35:01 20° NNW 11:37:45 10° NNE visible
21 May - 13:12:28 10° NNW 13:14:23 14° N 13:16:19 10° NE daylight
21 May - 14:50:31 10° NW 14:53:39 25° NNE 14:56:51 10° E daylight
21 May - 16:28:25 10° WNW 16:32:11 66° SW 16:36:05 10° SE daylight
